Weather History for Buffalo, WY

Change the Weather History Date:

Friday, February 1, 2013

  Actual Average Record
Temperature  
Mean Temperature 30 °F 27 °F  
Max Temperature 36 °F 37 °F 56 °F (2003)
Min Temperature 23 °F 17 °F -16 °F (2011)
Degree Days  
Heating Degree Days 35 38  
Month to date heating degree days 35 38  
Since 1 July heating degree days 3913 4245  
Cooling Degree Days 0 0  
Month to date cooling degree days 0 0  
Year to date cooling degree days 0 0  
Moisture  
Dew Point 25 °F    
Average Humidity 67    
Maximum Humidity 78    
Minimum Humidity 56    
Precipitation  
Precipitation 0.01 in 0.01 in 0.05 in (2003)
Month to date precipitation 0.01 0.01  
Year to date precipitation 0.49 0.43  
Sea Level Pressure  
Sea Level Pressure 30.08 in    
Wind  
Wind Speed 12 mph (NW)    
Max Wind Speed 28 mph    
Max Gust Speed 36 mph    
Visibility 8 miles    
Events Snow    
T = Trace of Precipitation, MM = Missing Value Source: NWS Daily Summary

Daily Weather History Graph

Daily Weather History Graph

Search for Another Location

Airport:

Trip Planner

Search our weather history database for the weather conditions in past years. The results will help you decide how hot, cold, wet, or windy it might be!

Date:

Astronomy

Feb. 01, 2013 Rise Set
Actual Time 7:24 AM MST 5:16 PM MST
Civil Twilight 6:53 AM MST 5:47 PM MST
Nautical Twilight 6:19 AM MST 6:22 PM MST
Astronomical Twilight 5:45 AM MST 6:56 PM MST
Moon 11:44 PM MST (2/1) 9:44 AM MST (2/1)
Length of Visible Light 10h 53m
Length of Day
9h 52m
Waning Gibbous, 69% of the Moon is Illuminated
Feb 1
Waning Gibbous
Feb 3
Last Quarter
Feb 10
New
Feb 17
First Quarter
Feb 25
Full

Hourly Weather History & Observations

Time (MST) Temp. Windchill Dew Point Humidity Pressure Visibility Wind Dir Wind Speed Gust Speed Precip Events Conditions
12:53 AM 34.0 °F 31.0 °F 21.9 °F 61% 30.11 in 10.0 mi Variable 3.5 mph - N/A   Overcast
1:53 AM 35.1 °F 29.3 °F 21.9 °F 59% 30.06 in 10.0 mi South 6.9 mph - N/A   Overcast
2:53 AM 32.0 °F 27.5 °F 21.9 °F 66% 30.06 in 10.0 mi West 4.6 mph - N/A   Overcast
3:53 AM 30.0 °F 25.2 °F 21.0 °F 69% 30.05 in 10.0 mi North 4.6 mph - N/A   Overcast
4:53 AM 30.9 °F 25.2 °F 19.9 °F 64% 30.04 in 10.0 mi SSW 5.8 mph - N/A   Mostly Cloudy
5:53 AM 33.1 °F 26.9 °F 21.0 °F 61% 30.03 in 10.0 mi South 6.9 mph - N/A   Overcast
6:53 AM 33.1 °F - 21.0 °F 61% 30.02 in 10.0 mi Calm Calm - N/A   Overcast
7:53 AM 35.1 °F 25.2 °F 23.0 °F 61% 30.04 in 10.0 mi NW 16.1 mph 24.2 mph N/A   Overcast
8:45 AM 30.2 °F 23.4 °F 24.8 °F 80% 29.98 in 10.0 mi North 6.9 mph - N/A   Overcast
8:53 AM 30.9 °F 25.2 °F 24.1 °F 76% 30.06 in 10.0 mi North 5.8 mph - N/A   Mostly Cloudy
9:53 AM 30.9 °F 24.3 °F 27.0 °F 85% 30.07 in 3.0 mi NNW 6.9 mph - 0.00 in Snow Light Snow
10:53 AM 30.9 °F - 28.0 °F 89% 30.07 in 10.0 mi Calm Calm - 0.00 in   Scattered Clouds
11:42 AM 32.0 °F 25.6 °F 28.4 °F 87% 30.02 in 10.0 mi NW 6.9 mph - N/A   Scattered Clouds
11:51 AM 32.0 °F 27.5 °F 28.4 °F 87% 30.01 in 2.5 mi West 4.6 mph - 0.00 in Snow Light Snow
11:53 AM 32.0 °F 24.2 °F 28.9 °F 88% 30.07 in 1.8 mi West 9.2 mph - 0.00 in Snow Light Snow
12:02 PM 32.0 °F 24.2 °F 28.4 °F 87% 30.02 in 2.0 mi WNW 9.2 mph - 0.00 in Snow Light Snow
12:13 PM 33.8 °F 27.0 °F 28.4 °F 81% 30.01 in 5.0 mi WNW 8.1 mph - 0.00 in Snow Light Snow
12:53 PM 36.0 °F 25.0 °F 26.1 °F 67% 30.05 in 10.0 mi NNW 20.7 mph 27.6 mph 0.00 in   Overcast
1:53 PM 34.0 °F 24.6 °F 27.0 °F 75% 30.06 in 3.0 mi NNW 13.8 mph 26.5 mph 0.00 in Snow Light Snow
2:01 PM 33.8 °F 24.3 °F 28.4 °F 81% 30.02 in 5.0 mi NNW 13.8 mph 21.9 mph 0.00 in Snow Light Snow
2:16 PM 33.8 °F 23.2 °F 26.6 °F 75% 30.02 in 4.0 mi NNW 17.3 mph 29.9 mph 0.01 in Snow Light Snow
2:24 PM 33.8 °F 23.5 °F 26.6 °F 75% 30.02 in 2.5 mi NNW 16.1 mph 27.6 mph 0.01 in Snow Light Snow
2:32 PM 33.8 °F 23.5 °F 26.6 °F 75% 30.02 in 8.0 mi NNW 16.1 mph 26.5 mph 0.01 in   Mostly Cloudy
2:51 PM 33.8 °F 21.6 °F 26.6 °F 75% 30.03 in 1.8 mi NNW 23.0 mph 33.4 mph 0.01 in Snow Light Snow
2:52 PM 33.1 °F 20.6 °F 27.0 °F 78% 30.09 in 1.5 mi NNW 23.0 mph 33.4 mph 0.01 in Snow Light Snow
3:02 PM 32.0 °F 20.5 °F 26.6 °F 80% 30.04 in 3.0 mi NNW 18.4 mph - 0.00 in Snow Light Snow
3:15 PM 33.8 °F 21.9 °F 26.6 °F 75% 30.04 in 10.0 mi NNW 21.9 mph 28.8 mph 0.00 in   Mostly Cloudy
3:53 PM 33.1 °F 20.9 °F 27.0 °F 78% 30.11 in 10.0 mi NNW 21.9 mph 34.5 mph 0.00 in   Mostly Cloudy
4:53 PM 33.1 °F 21.5 °F 23.0 °F 66% 30.12 in 10.0 mi NNW 19.6 mph 26.5 mph N/A   Scattered Clouds
5:53 PM 32.0 °F 23.0 °F 21.9 °F 66% 30.12 in 10.0 mi NNW 11.5 mph - N/A   Clear
6:53 PM 24.1 °F 17.0 °F 17.1 °F 75% 30.17 in 10.0 mi WSW 5.8 mph - N/A   Clear
7:53 PM 28.0 °F 19.3 °F 19.0 °F 69% 30.17 in 10.0 mi WSW 9.2 mph - N/A   Mostly Cloudy
8:53 PM 30.9 °F 18.4 °F 21.9 °F 69% 30.20 in 6.0 mi North 20.7 mph 35.7 mph 0.00 in Snow Light Snow
9:53 PM 32.0 °F 19.2 °F 26.1 °F 79% 30.21 in 7.0 mi NW 23.0 mph 33.4 mph 0.00 in Snow Light Snow
10:46 PM 32.0 °F 19.2 °F 21.2 °F 64% 30.16 in 10.0 mi NNW 23.0 mph 34.5 mph 0.00 in   Mostly Cloudy
10:53 PM 30.9 °F 18.1 °F 23.0 °F 72% 30.24 in 10.0 mi NNW 21.9 mph - 0.00 in   Mostly Cloudy
11:53 PM 32.0 °F 20.5 °F 21.9 °F 66% 30.23 in 10.0 mi NNW 18.4 mph 27.6 mph N/A   Partly Cloudy